Weather History for Denver, CO

Change the Weather History Date:

Sunday, August 18, 2013

  Actual Average (KDEN) Record (KDEN)
Temperature  
Mean Temperature 78 °F 72 °F  
Max Temperature 95 °F 87 °F 98 °F (1986)
Min Temperature 62 °F 58 °F 47 °F (1960)
Degree Days  
Heating Degree Days 0 0  
Month to date heating degree days 0  
Since 1 June heating degree days 68  
Since 1 July heating degree days 6  
Cooling Degree Days 14 8  
Month to date cooling degree days 162  
Year to date cooling degree days 606  
Since 1 June cooling degree days 584  
Growing Degree Days 28 (Base 50)    
Moisture  
Dew Point 51 °F    
Average Humidity 50    
Maximum Humidity 73    
Minimum Humidity 11    
Precipitation  
Precipitation 0.00 in 0.06 in 1.62 in (2004)
Month to date precipitation 1.16  
Year to date precipitation 10.83  
Snow  
Snow 0.00 in - - ()
Month to date snowfall  
Since 1 June snowfall  
Since 1 July snowfall  
Snow Depth -    
Sea Level Pressure  
Sea Level Pressure 30.16 in    
Wind  
Wind Speed 12 mph (SSW)    
Max Wind Speed 23 mph    
Max Gust Speed 32 mph    
Visibility 11 miles    
Events Thunderstorm    
T = Trace of Precipitation, MM = Missing Value Source: NWS Daily Summary

Daily Weather History Graph

Daily Weather History Graph

Search for Another Location

Airport:

Trip Planner

Search our weather history database for the weather conditions in past years. The results will help you decide how hot, cold, wet, or windy it might be!

Date:

Astronomy

Aug. 18, 2013 Rise Set
Actual Time 6:13 AM MDT 7:49 PM MDT
Civil Twilight 5:44 AM MDT 8:18 PM MDT
Nautical Twilight 5:10 AM MDT 8:52 PM MDT
Astronomical Twilight 4:33 AM MDT 9:29 PM MDT
Moon 5:57 PM MDT (8/18) 3:25 AM MDT (8/18)
Length of Visible Light 14h 33m
Length of Day
13h 36m
Waxing Gibbous, 92% of the Moon is Illuminated
Aug 18
Waxing Gibbous
Aug 20
Full
Aug 28
Last Quarter
Sep 5
New
Sep 12
First Quarter

Hourly Weather History & Observations

Time (MDT) Temp. Dew Point Humidity Pressure Visibility Wind Dir Wind Speed Gust Speed Precip Events Conditions
12:17 AM 73.4 °F 55.4 °F 53% 30.15 in 10.0 mi South 15.0 mph - N/A   Clear
12:37 AM 73.4 °F 55.4 °F 53% 30.14 in 10.0 mi South 13.8 mph 21.9 mph N/A   Clear
12:57 AM 73.4 °F 55.4 °F 53% 30.14 in 10.0 mi South 15.0 mph 20.7 mph N/A   Clear
1:17 AM 73.4 °F 55.4 °F 53% 30.14 in 10.0 mi SSW 16.1 mph - N/A   Clear
1:36 AM 71.6 °F 55.4 °F 57% 30.13 in 10.0 mi SSW 13.8 mph - N/A   Clear
1:57 AM 71.6 °F 55.4 °F 57% 30.12 in 10.0 mi South 16.1 mph - N/A   Clear
2:17 AM 71.6 °F 55.4 °F 57% 30.12 in 10.0 mi SSW 16.1 mph - N/A   Clear
2:37 AM 73.4 °F 55.4 °F 53% 30.12 in 10.0 mi SSW 17.3 mph - N/A   Clear
2:57 AM 71.6 °F 55.4 °F 57% 30.12 in 10.0 mi SSW 15.0 mph - N/A   Clear
3:17 AM 71.6 °F 55.4 °F 57% 30.12 in 10.0 mi SSW 13.8 mph - N/A   Clear
3:37 AM 71.6 °F 55.4 °F 57% 30.12 in 10.0 mi SSW 15.0 mph - N/A   Clear
3:57 AM 69.8 °F 55.4 °F 60% 30.12 in 10.0 mi WSW 10.4 mph - N/A   Clear
4:17 AM 68.0 °F 55.4 °F 64% 30.12 in 10.0 mi WSW 11.5 mph - N/A   Clear
4:37 AM 68.0 °F 55.4 °F 64% 30.12 in 10.0 mi West 10.4 mph - N/A   Clear
4:57 AM 64.4 °F 53.6 °F 68% 30.13 in 10.0 mi West 10.4 mph - N/A   Clear
5:17 AM 62.6 °F 53.6 °F 72% 30.13 in 10.0 mi West 10.4 mph - N/A   Clear
5:37 AM 62.6 °F 53.6 °F 72% 30.13 in 10.0 mi WSW 6.9 mph - N/A   Clear
5:56 AM 62.6 °F 53.6 °F 72% 30.14 in 10.0 mi WSW 6.9 mph - N/A   Clear
6:17 AM 62.6 °F 53.6 °F 72% 30.14 in 10.0 mi WSW 8.1 mph - N/A   Clear
6:37 AM 64.4 °F 53.6 °F 68% 30.15 in 10.0 mi WSW 8.1 mph - N/A   Clear
6:47 AM 64.4 °F 55.4 °F 73% 30.15 in 10.0 mi WSW 6.9 mph - N/A   Clear
7:47 AM 71.6 °F 55.4 °F 57% 30.16 in 10.0 mi SW 8.1 mph - N/A   Partly Cloudy
8:49 AM 77.0 °F 53.6 °F 44% 30.16 in 10.0 mi WSW 5.8 mph - N/A   Partly Cloudy
11:47 AM 91.4 °F 39.2 °F 16% 30.16 in 10.0 mi Calm Calm - N/A   Partly Cloudy
12:48 PM 93.2 °F 37.4 °F 14% 30.14 in 10.0 mi NNE 5.8 mph - N/A   Scattered Clouds
2:58 PM 95.0 °F 32.0 °F 11% 30.12 in 20.0 mi NE 9.2 mph 16.1 mph N/A   Mostly Cloudy
3:49 PM 93.2 °F 35.6 °F 13% 30.12 in 20.0 mi NNE 10.4 mph 16.1 mph N/A Thunderstorm Mostly Cloudy
4:48 PM 86.0 °F 41.0 °F 20% 30.13 in 20.0 mi North 23.0 mph 32.2 mph N/A Thunderstorm Mostly Cloudy
5:48 PM 87.8 °F 37.4 °F 17% 30.12 in 10.0 mi NNE 17.3 mph 25.3 mph N/A Thunderstorm Scattered Clouds
6:48 PM 82.4 °F 44.6 °F 26% 30.17 in 30.0 mi North 20.7 mph - N/A   Mostly Cloudy
7:48 PM 78.8 °F 50.0 °F 36% 30.19 in 30.0 mi East 5.8 mph - N/A   Mostly Cloudy
8:37 PM 73.4 °F 51.8 °F 47% 30.20 in 10.0 mi East 6.9 mph - N/A   Clear
8:57 PM 71.6 °F 51.8 °F 50% 30.20 in 10.0 mi East 3.5 mph - N/A   Clear
9:17 PM 71.6 °F 50.0 °F 46% 30.21 in 10.0 mi East 9.2 mph - N/A   Clear
9:37 PM 71.6 °F 50.0 °F 46% 30.21 in 10.0 mi ESE 13.8 mph 18.4 mph N/A   Clear
9:57 PM 71.6 °F 51.8 °F 50% 30.21 in 10.0 mi SSE 11.5 mph - N/A   Clear
10:17 PM 71.6 °F 50.0 °F 46% 30.21 in 10.0 mi SSE 10.4 mph - N/A   Clear
10:37 PM 69.8 °F 51.8 °F 53% 30.21 in 10.0 mi SSE 9.2 mph - N/A   Clear
10:56 PM 69.8 °F 51.8 °F 53% 30.21 in 10.0 mi South 6.9 mph - N/A   Clear
11:17 PM 69.8 °F 50.0 °F 49% 30.21 in 10.0 mi South 10.4 mph - N/A   Clear
11:37 PM 69.8 °F 50.0 °F 49% 30.21 in 10.0 mi SSW 10.4 mph - N/A   Clear
11:57 PM 68.0 °F 50.0 °F 52% 30.21 in 10.0 mi South 6.9 mph - N/A   Clear